Showing default

SAUDISAT 5B, 43833

Orbit data source: Space-Track

SAUDISAT 5B, 43833 is a payload satellite owned by KACST (SA) in SSO that was launched on Fri, 07 Dec 2018 UTC via a CHANG ZHENG 2D launch vehicle from the Jiuquan Satellite Launch Center, China (JSC). Payload-class satellites include a variety of spacecraft equipped with specific instruments for various scientific and technological missions. These include communications satellites like Starlink; space stations such as the ISS; scientific satellites like the Hubble; Earth observation satellites from companies like Planet Labs, Umbra, and HawkEye 360; GPS; miniature CubeSats for education and research; and military/defense satellites.

Loading next visibility...
Identifier
43833, 2018-102C
Orbit
SSO
Country
Flag of UnknownUnknown / SAUD
Related business
Manufacturer
KACST
Mission
Operational Civil Technology
Bus & Motor
SAUDISAT, Unknown motor
Mass
425 kg wet, 425 kg dry
Launch date (UTC)
Icon of a cake. It is the launch day of the satellite!2018-12-07 (7 years ago)
Launch vehicle
CHANG ZHENG 2D
Launch site
Jiuquan Satellite Launch Center, China (JSC)
Object type
Payload
Rocket body
Debris
Shape & HBR
Box, 1.0 m
Radar Cross Section
2.500 m², Large (>1 m²)

Expand to show TLE details & history
Last TLE update: 12 hours ago

TLE from 12 hours ago
0 SAUDISAT 5B
1 43833U 18102C   25341.27310188  .00009736  00000-0  38147-3 0  9999
2 43833  97.3452  44.2989 0012515  95.4171 264.8495 15.25911347386508
Epoch: 2025-12-07T06:33Z
TLE epoch observation values (Epoch: 2025-12-07T06:33:16.002Z)
Latitude
-0.00008°
Longitude
-130.30662°
Altitude
491.933 km
Speed
7.618 km/s
True Right ascension
02h 57m 11s
True Declination
0° 00' 00"
Sunlit
Object was in full shadow at epoch
Visualization orbit readout
Latitude
Unknown
Longitude
Unknown
Altitude
Unknown
Speed
Unknown
Apparent Right ascension
Unknown
Apparent Declination
Unknown
Sunlit
N/A
Visualization observer readout
Local Sidereal Time
16:21:12
Azimuth
Unknown
Elevation
Unknown
Doppler factor
Unknown
Orbital elements
Apogee altitude
493.595 km
Perigee altitude
476.416 km
Semi-major axis
6,863.143 km
Eccentricity
0.00125
Inclination
97.3452°
RAAN
44.2989°
Arg. of periapsis
95.4171°
True anomaly
264.70669°
Mean anomaly
264.8495°
Eccentric anomaly
264.77809°
Mean motion
3.81732 °/min
Orbital period
94.31 mins
BSTAR
0.00038147
Loading maneuver chart data...
Computing Atmospheric mass density...
Loading historical data...
Loading historical data...
Loading historical data...
Loading historical data...
Loading historical data...
Loading historical data...
Loading historical data...

Documentation

Showing up to 5 results
|